Regional Weather Roundup
Issued by NWS Newport/Morehead, NC

Current Version | Previous Version | Text Only | Print | Product List | Glossary On
Versions: 1 2 3 4 5 6 7 8 9 10 11 12 13 14 15 16 17 18 19 20 21 22 23 24 25 26 27 28 29 30 31 32 33 34 35 36 37 38 39 40 41 42 43 44 45 46 47 48 49 50
000
ASUS42 KMHX 312313
RWRMHX
WEATHER ROUNDUP FOR EASTERN NORTH CAROLINA
NATIONAL WEATHER SERVICE NEWPORT/MOREHEAD CITY NC
700 PM EDT MON AUG 31 2015

NOTE: "FAIR" INDICATES FEW OR NO CLOUDS BELOW 12,000 FEET
WITH NO SIGNIFICANT WEATHER AND/OR OBSTRUCTIONS TO VISIBILITY

NCZ015>017-031-032-045>047-102-103-010000-
NORTH COAST

CITY           SKY/WX    TMP DP  RH WIND       PRES   REMARKS
EDENTON        CLOUDY    74  71  88 SE6       30.07S
ELIZABETH CITY LGT RAIN  74  72  93 SE7       30.08S FOG
KITTY HAWK     CLOUDY    75  71  87 CALM      30.07S
MANTEO         CLOUDY    73  72  96 SE5       30.08S

$$

NCZ045>047-081-094-103-104-010000-
CENTRAL COAST

CITY           SKY/WX    TMP DP  RH WIND       PRES   REMARKS
FRISCO         CLOUDY    78  71  79 S14       30.07F
SWANQUARTER    NOT AVBL

$$

NCZ095-097-098-100-101-010000-
SOUTHERN COAST

CITY           SKY/WX    TMP DP  RH WIND       PRES   REMARKS
BEAUFORT       CLOUDY    78  76  93 SE8       30.05F
CEDAR ISLAND   NOT AVBL
JACKSONVILLE   LGT RAIN  77  74  90 E7        30.04S FOG
PINEY ISLAND   MOCLDY   N/A N/A N/A SE7       30.06S
WILMINGTON     LGT RAIN  75  74  96 E7        30.04S FOG


$$

NCZ011>013-027>030-043-044-078>080-089-090>093-098-010000-
COASTAL PLAIN

CITY           SKY/WX    TMP DP  RH WIND       PRES   REMARKS
AHOSKIE        MOCLDY    73  71  94 CALM      30.06F
CLINTON        MOCLDY    81  76  84 NE5       30.04S
ELIZABETHTOWN  CLOUDY    80  74  82 CALM      30.03S
GOLDSBORO      CLOUDY    77  73  88 SE2       30.03S
GREENVILLE     CLOUDY    79  73  83 E3        30.07S
HAVELOCK       RAIN      78  73  84 SE8       30.07R
KENANSVILLE      N/A     78  74  88 CALM      30.05S
KINSTON        CLOUDY    77  75  94 W3        30.05S FOG
NEW BERN       CLOUDY    78  73  84 SE3       30.07R
RICHLANDS      CLOUDY    77  72  83 SE8       30.05S
ROCKY MOUNT    CLOUDY    77  72  84 E5        30.06S
WASHINGTON     MOCLDY    77  73  88 E6        30.05F
WHITEVILLE     MOCLDY    78  74  88 CALM      30.03R

$$

AMZ130-135-150-152-154-156-158-170-250-252-270-ANZ085-086-088-633-658-670-010000-
MARINE OBSERVATIONS

STATION/POSITION TIME  TEMP    WIND        PRES    WAVE   SWELL
                       AIR SEA DIR/SP/G            HT/PER HT/PER
                 (UTC) (F)     (DEG/KT/KT) (MB)    (FT/S) (FT/S)
CHESAPEAKE LIGHT 2300   75     220/  6/  7 1019.1
64 E VA BEACH    2250   76 78  290/  2/  4 1018.1    3/ 9   3/ 9
DUCK             2200   74 79  180/  7/  9 1017.9
2 E DUCK         2211      78                N/A     2/ 9
OREGON INLET     2200   75 80  120/  6/  9 1018.7
13E OREGON INLT  2300      79                N/A     3/ 9   2/11
HATTERAS CG      2200   78 80  150/  8/ 11 1017.9
DIAMOND BUOY     2250   80 84  160/ 14/ 16 1018.4    3/ 9   3/ 9
CAPE LOOKOUT     2300   79     140/ 14/ 16 1017.3
BEAUFORT LAB     2200   77 79  140/ 10/ 12 1017.1
30 SE NEW RVR IN 2208   78 81  130/ 17/ 21 1018.6
30 SE NEW RVR IN 2225      81                N/A     4/ 8
27 SE WRIGHTSVLE 2200   76 81  120/ 10/ 12   N/A
5 SE WRIGHTSVLE  2208   78 82  130/ 12/ 16 1016.8
225 S CAPE HAT   2250   84 84  210/ 12/ 14 1018.8    4/ 6   3/ 6
41 SE CHARLESTON 2250   82 83  230/ 10/ 12 1016.4    4/ 8   3/ 8

$$



USA.gov is the U.S. government's official web portal to all federal, state and local government web resources and services.